Change the Weather History Date:

Thursday, October 3, 2013

  Actual Average Record
Temperature  
Mean Temperature 76 °F -  
Max Temperature 89 °F 71 °F 98 °F (2006)
Min Temperature 62 °F 45 °F 33 °F (2010)
Cooling Degree Days 10    
Growing Degree Days 26 (Base 50)    
Moisture  
Dew Point 60 °F    
Average Humidity 65    
Maximum Humidity 100    
Minimum Humidity 25    
Precipitation  
Precipitation 0.00 in - - ()
Sea Level Pressure  
Sea Level Pressure 29.70 in    
Wind  
Wind Speed 13 mph (SSE)    
Max Wind Speed 22 mph    
Max Gust Speed 31 mph    
Visibility 10 miles    
Events      
Averages and records for this station are not official NWS values.
T = Trace of Precipitation, MM = Missing Value Source: NWS Daily Summary

Daily Weather History Graph

Daily Weather History Graph

Search for Another Location

Airport or City:

Trip Planner

Search our weather history database for the weather conditions in past years. The results will help you decide how hot, cold, wet, or windy it might be!

Date:

Astronomy

Oct. 03, 2013 Rise Set
Actual Time 7:35 AM CDT 7:16 PM CDT
Civil Twilight 7:08 AM CDT 7:42 PM CDT
Nautical Twilight 6:37 AM CDT 8:13 PM CDT
Astronomical Twilight 6:06 AM CDT 8:44 PM CDT
Moon 6:10 AM CDT (10/3) 6:25 PM CDT (10/3)
Length of Visible Light 12h 34m
Length of Day
11h 41m
Waning Crescent, 2% of the Moon is Illuminated
Oct 3
Waning Crescent
Oct 4
New
Oct 11
First Quarter
Oct 18
Full
Oct 26
Last Quarter

Hourly Weather History & Observations

Time (CDT) Temp. Heat Index Dew Point Humidity Pressure Visibility Wind Dir Wind Speed Gust Speed Precip Events Conditions
12:15 AM 69.8 °F - 66.2 °F 88% 29.79 in 10.0 mi SSE 11.5 mph - N/A   Clear
12:35 AM 69.8 °F - 66.2 °F 88% 29.78 in 10.0 mi SSE 15.0 mph - N/A   Clear
12:55 AM 69.8 °F - 66.2 °F 88% 29.77 in 10.0 mi SSE 12.7 mph - N/A   Clear
1:15 AM 69.8 °F - 64.4 °F 83% 29.77 in 10.0 mi SSE 11.5 mph - N/A   Clear
1:35 AM 69.8 °F - 64.4 °F 83% 29.76 in 10.0 mi SSE 13.8 mph - N/A   Clear
1:55 AM 69.8 °F - 64.4 °F 83% 29.75 in 10.0 mi SSE 16.1 mph - N/A   Clear
2:15 AM 69.8 °F - 64.4 °F 83% 29.75 in 10.0 mi SSE 13.8 mph - N/A   Clear
2:35 AM 69.8 °F - 64.4 °F 83% 29.75 in 10.0 mi SSE 12.7 mph - N/A   Clear
2:55 AM 69.8 °F - 64.4 °F 83% 29.75 in 10.0 mi South 12.7 mph 19.6 mph N/A   Clear
3:15 AM 69.8 °F - 64.4 °F 83% 29.75 in 10.0 mi South 16.1 mph 21.9 mph N/A   Clear
3:35 AM 69.8 °F - 64.4 °F 83% 29.74 in 10.0 mi South 15.0 mph - N/A   Clear
3:55 AM 68.0 °F - 64.4 °F 88% 29.73 in 10.0 mi SSE 13.8 mph - N/A   Clear
4:15 AM 68.0 °F - 64.4 °F 88% 29.73 in 10.0 mi South 13.8 mph - N/A   Clear
4:35 AM 68.0 °F - 64.4 °F 88% 29.73 in 10.0 mi South 12.7 mph 21.9 mph N/A   Clear
4:55 AM 66.2 °F - 62.6 °F 88% 29.73 in 10.0 mi South 11.5 mph - N/A   Clear
5:15 AM 66.2 °F - 62.6 °F 88% 29.72 in 10.0 mi South 11.5 mph - N/A   Clear
5:35 AM 66.2 °F - 62.6 °F 88% 29.72 in 10.0 mi SSE 9.2 mph - N/A   Clear
5:55 AM 64.4 °F - 62.6 °F 94% 29.72 in 10.0 mi SE 5.8 mph - N/A   Clear
6:15 AM 64.4 °F - 62.6 °F 94% 29.73 in 10.0 mi SE 3.5 mph - N/A   Clear
6:35 AM 64.4 °F - 62.6 °F 94% 29.73 in 10.0 mi SE 8.1 mph - N/A   Clear
6:55 AM 64.4 °F - 62.6 °F 94% 29.73 in 10.0 mi East 3.5 mph - N/A   Clear
7:15 AM 62.6 °F - 60.8 °F 94% 29.73 in 10.0 mi East 8.1 mph - N/A   Clear
7:35 AM 62.6 °F - 60.8 °F 94% 29.74 in 6.0 mi NE 10.4 mph - N/A   Scattered Clouds
7:55 AM 64.4 °F - 62.6 °F 94% 29.75 in 7.0 mi ENE 10.4 mph - N/A   Mostly Cloudy
8:15 AM 64.4 °F - 64.4 °F 100% 29.75 in 8.0 mi ENE 9.2 mph - N/A   Overcast
8:35 AM 66.2 °F - 64.4 °F 94% 29.75 in 8.0 mi East 11.5 mph - N/A   Overcast
8:55 AM 66.2 °F - 64.4 °F 94% 29.76 in 10.0 mi East 9.2 mph - N/A   Overcast
9:15 AM 66.2 °F - 64.4 °F 94% 29.76 in 10.0 mi East 10.4 mph - N/A   Overcast
9:35 AM 68.0 °F - 64.4 °F 88% 29.77 in 10.0 mi ESE 10.4 mph - N/A   Overcast
9:55 AM 69.8 °F - 64.4 °F 83% 29.77 in 10.0 mi ESE 10.4 mph - N/A   Overcast
10:15 AM 69.8 °F - 64.4 °F 83% 29.76 in 10.0 mi SE 15.0 mph - N/A   Overcast
10:35 AM 71.6 °F - 64.4 °F 78% 29.75 in 10.0 mi SE 12.7 mph 19.6 mph N/A   Mostly Cloudy
10:55 AM 73.4 °F - 64.4 °F 73% 29.75 in 10.0 mi SSE 12.7 mph - N/A   Mostly Cloudy
11:15 AM 73.4 °F - 62.6 °F 69% 29.74 in 10.0 mi SE 13.8 mph 19.6 mph N/A   Mostly Cloudy
11:35 AM 73.4 °F - 64.4 °F 73% 29.73 in 10.0 mi SE 16.1 mph 20.7 mph N/A   Mostly Cloudy
11:55 AM 75.2 °F - 64.4 °F 69% 29.72 in 10.0 mi SSE 13.8 mph 20.7 mph N/A   Mostly Cloudy
12:15 PM 77.0 °F - 64.4 °F 65% 29.72 in 10.0 mi SE 19.6 mph 24.2 mph N/A   Mostly Cloudy
12:35 PM 78.8 °F - 62.6 °F 57% 29.70 in 10.0 mi South 19.6 mph 24.2 mph N/A   Scattered Clouds
12:55 PM 80.6 °F 81.5 °F 60.8 °F 51% 29.70 in 10.0 mi South 19.6 mph 26.5 mph N/A   Clear
1:15 PM 80.6 °F 81.1 °F 59.0 °F 48% 29.69 in 10.0 mi South 20.7 mph 31.1 mph N/A   Clear
1:35 PM 82.4 °F 82.5 °F 59.0 °F 45% 29.68 in 10.0 mi South 20.7 mph 25.3 mph N/A   Clear
1:55 PM 82.4 °F 82.0 °F 57.2 °F 42% 29.67 in 10.0 mi South 16.1 mph - N/A   Clear
2:15 PM 84.2 °F 82.8 °F 53.6 °F 35% 29.67 in 10.0 mi South 19.6 mph 25.3 mph N/A   Clear
2:35 PM 84.2 °F 82.8 °F 53.6 °F 35% 29.66 in 10.0 mi SSW 19.6 mph - N/A   Clear
2:55 PM 86.0 °F - 51.8 °F 31% 29.66 in 10.0 mi SSW 17.3 mph 25.3 mph N/A   Clear
3:15 PM 87.8 °F - 51.8 °F 29% 29.66 in 10.0 mi SSW 19.6 mph 23.0 mph N/A   Clear
3:35 PM 87.8 °F - 51.8 °F 29% 29.65 in 10.0 mi SSW 18.4 mph 23.0 mph N/A   Clear
3:55 PM 87.8 °F - 51.8 °F 29% 29.64 in 10.0 mi SSW 12.7 mph 19.6 mph N/A   Clear
4:15 PM 87.8 °F - 51.8 °F 29% 29.64 in 10.0 mi SSW 13.8 mph 19.6 mph N/A   Clear
4:35 PM 87.8 °F 85.7 °F 53.6 °F 31% 29.63 in 10.0 mi SSW 15.0 mph 21.9 mph N/A   Clear
4:55 PM 89.6 °F - 51.8 °F 27% 29.62 in 10.0 mi SSW 17.3 mph - N/A   Clear
5:15 PM 89.6 °F - 51.8 °F 27% 29.62 in 10.0 mi SSW 15.0 mph - N/A   Clear
5:35 PM 89.6 °F - 51.8 °F 27% 29.62 in 10.0 mi SSW 13.8 mph - N/A   Clear
5:55 PM 87.8 °F - 48.2 °F 25% 29.62 in 10.0 mi SSW 16.1 mph 19.6 mph N/A   Clear
6:15 PM 87.8 °F - 48.2 °F 25% 29.62 in 10.0 mi SSW 12.7 mph - N/A   Clear
6:35 PM 86.0 °F - 48.2 °F 27% 29.62 in 10.0 mi South 9.2 mph - N/A   Clear
6:55 PM 84.2 °F - 51.8 °F 33% 29.63 in 10.0 mi South 13.8 mph - N/A   Clear
7:15 PM 82.4 °F 81.7 °F 55.4 °F 39% 29.64 in 10.0 mi South 15.0 mph 19.6 mph N/A   Partly Cloudy
7:35 PM 80.6 °F 80.8 °F 57.2 °F 45% 29.64 in 10.0 mi SSE 11.5 mph - N/A   Partly Cloudy
7:55 PM 78.8 °F - 57.2 °F 47% 29.64 in 10.0 mi SSE 11.5 mph - N/A   Clear
8:15 PM 77.0 °F - 57.2 °F 50% 29.64 in 10.0 mi SSE 11.5 mph - N/A   Clear
8:35 PM 77.0 °F - 57.2 °F 50% 29.64 in 10.0 mi SSE 12.7 mph - N/A   Clear
8:55 PM 75.2 °F - 57.2 °F 53% 29.65 in 10.0 mi SSE 12.7 mph - N/A   Clear
9:15 PM 75.2 °F - 59.0 °F 57% 29.65 in 10.0 mi SSE 12.7 mph - N/A   Clear
9:35 PM 75.2 °F - 60.8 °F 61% 29.66 in 10.0 mi South 19.6 mph 23.0 mph N/A   Clear
9:55 PM 77.0 °F - 60.8 °F 57% 29.66 in 10.0 mi SSE 20.7 mph 28.8 mph N/A   Clear
10:15 PM 75.2 °F - 62.6 °F 65% 29.65 in 10.0 mi SSE 20.7 mph 25.3 mph N/A   Clear
10:35 PM 75.2 °F - 62.6 °F 65% 29.65 in 10.0 mi SSE 20.7 mph 27.6 mph N/A   Clear
11:35 PM 75.2 °F - 62.6 °F 65% 29.64 in 10.0 mi South 20.7 mph 29.9 mph N/A   Clear
11:55 PM 75.2 °F - 62.6 °F 65% 29.64 in 10.0 mi South 21.9 mph - N/A   Clear